Skip Page Navigation
NASA JPL Caltech
NASA Logo - Jet Propulsion Laboratory + View the NASA Portal
+ Near-Earth Object (NEO) Program
Search JPL
JPL Home Earth Solar System Stars & Galaxies Technology
JPL Solar System Dynamics
BODIES ORBITS EPHEMERIDES TOOLS PHYSICAL DATA DISCOVERY FAQ SITE MAP
JPL Small-Body Database Browser
Search: [ help ]  
189040 (2000 MU1)
Classification: Apollo [NEO, PHA]          SPK-ID: 2189040
Ephemeris | Orbit Diagram | Orbital Elements | Physical Parameters | Discovery Circumstances | Close-Approach Data ]

[ hide orbit diagram ]
Orbit Diagram
Note: Make sure you have Java enabled on your browser to see the applet. This applet is provided as a 3D orbit visualization tool. The applet was implemented using 2-body methods, and hence should not be used for determining accurate long-term trajectories (over several years or decades) or planetary encounter circumstances. For accurate long-term ephemerides, please instead use our Horizons system.
Orbit Viewer

Additional Notes: the orbits shown in the applet are color coded. The planets are white lines, and the asteroid/comet is a blue line. The bright white line indicates the portion of the orbit that is above the ecliptic plane, and the darker portion is below the ecliptic plane. Likewise for the asteroid/comet orbit, the light blue indicates the portion above the ecliptic plane, and the dark blue the portion below the ecliptic plane.

Orbit Viewer applet originally written and kindly provided by Osamu Ajiki (AstroArts), and further modified by Ron Baalke (JPL).


Orbital Elements at Epoch 2456400.5 (2013-Apr-18.0) TDB
Reference: JPL 47 (heliocentric ecliptic J2000)
 Element Value Uncertainty (1-sigma)   Units 
e .3825161033318188 2.3767e-07  
a 1.373118876799954 9.9512e-09 AU
q .8478787946350719 3.2929e-07 AU
i 13.0936319185012 2.3912e-05 deg
node 130.1104531502026 6.0505e-05 deg
peri 63.63569880184122 7.86e-05 deg
M 31.19599319656421 1.2242e-05 deg
tp 2456349.571961514896
(2013-Feb-26.07196152)
1.9991e-05 JED
period 587.7066884556369
1.61
6.3888e-06
1.749e-08
d
yr
n .6125504559868126 6.6589e-09 deg/d
Q 1.898358958964837 1.3758e-08 AU
  Orbit Determination Parameters
   # obs. used (total)      136  
   data-arc span      4564 days (12.50 yr)  
   first obs. used      2000-06-24  
   last obs. used      2012-12-22  
   planetary ephem.      DE405  
   SB-pert. ephem.      SB405-CPV-2  
   condition code      0  
   fit RMS      .50202  
   data source      ORB  
   producer      Otto Matic  
   solution date      2013-Apr-29 15:40:22  

Additional Information
 Earth MOID = .00999689 AU 
 T_jup = 4.714 
[ show covariance matrix ]

Ephemeris | Orbit Diagram | Orbital Elements | Physical Parameters | Discovery Circumstances | Close-Approach Data ]

Physical Parameter Table
Parameter Symbol Value Units Sigma Reference Notes
absolute magnitude H 19.795 mag .79849 47 autocmod 2.5c
SMASSII spectral type spec_B S   n/a Binzel et al. (2004) Icarus 170, 259-294  

189040 (2000 MU1)          Discovered 2000-Jun-24 by LINEAR at Socorro (704)
Reference: 20080718/Numbers.arcLast Updated: 2008-07-18

[ show close-approach data ]
Ephemeris | Orbit Diagram | Orbital Elements | Physical Parameters | Discovery Circumstances | Close-Approach Data ]
ABOUT SSD CREDITS/AWARDS PRIVACY/COPYRIGHT GLOSSARY LINKS
FirstGov 2013-May-18 17:37 UT
(server date/time)  
NASA Home Page
Site Manager:   Donald K. Yeomans
Webmaster  Alan B. Chamberlin